Tracking 30970 objects as of 3-Jul-2025
HD Live streaming from Space Station
objects crossing your sky now

SL-14 R/B

Track SL-14 R/B now!
10-day predictions


NORAD ID: 23005
Int'l Code: 1994-011G
Perigee: 1,417.5 km
Apogee: 1,482.3 km
Inclination: 82.6 °
Period: 114.7 minutes
Semi major axis: 7820 km
RCS: 5.492 m2 (large)
Launch date: February 12, 1994
Source: Commonwealth of Independent States (former USSR) (CIS)
Launch site: PLESETSK MISSILE AND SPACE COMPLEX (PKMTR)

Note: This is a ROCKET BODY
Your satellite tracking list
Your tracking list is empty




NASA's NSSDC Master Catalog

Two Line Element Set (TLE):
1 23005U 94011G   25183.83227439  .00000015  00000-0  27198-4 0  9999
2 23005  82.5778 282.9149 0041461 173.5642 308.3016 12.55218846437926
Source of the keplerian elements: AFSPC